Tracking 27380 objects as of 6-Jun-2023
HD Live streaming from Space Station
objects crossing your sky now

COSMOS 2251 DEB

Track COSMOS 2251 DEB now!
10-day predictions


NORAD ID: 34456
Int'l Code: 1993-036SZ
Perigee: 663.8 km
Apogee: 720.6 km
Inclination: 74.0 °
Period: 98.5 minutes
Semi major axis: 7063 km
RCS: 0.0069 m2 (small)
Launch date: June 16, 1993
Source: Commonwealth of Independent States (former USSR) (CIS)
Launch site: PLESETSK MISSILE AND SPACE COMPLEX (PKMTR)

Note: This is SATELLITE DEBRIS
Your satellite tracking list
Your tracking list is empty




NASA's NSSDC Master Catalog

Two Line Element Set (TLE):
1 34456U 93036SZ  23156.56255937  .00018263  00000-0  35564-2 0  9997
2 34456  74.0415  90.3243 0040171 358.6912   1.4142 14.62510091750602
Source of the keplerian elements: AFSPC